Regional Weather Roundup
Issued by NWS

Home | Current Version | Previous Version | Graphics & Text | Print | Product List | Glossary On
Versions: 1 2 3 4 5 6 7 8 9 10 11 12 13 14 15 16 17 18 19 20 21 22 23 24 25 26 27 28 29 30 31 32 33 34 35 36 37 38 39 40 41 42 43 44 45 46 47 48 49 50
000
ASUS45 KSLC 011210
RWRUT

UTAH REGIONAL WEATHER ROUNDUP
NATIONAL WEATHER SERVICE SALT LAKE CITY UT
500 AM MST SUN FEB 01 2015

UTZ001>011-023>025-011300-

NORTHERN UTAH

CITY           SKY/WX    TMP DP  RH WIND       PRES   REMARKS
BRIGHAM CITY   PTCLDY    27  24  87 CALM      30.21R
HILL AFB       CLEAR     29  22  75 SE7       30.19R WCI  22
LOGAN          PTCLDY    24  21  88 CALM      30.21R
OGDEN          CLEAR     28  24  85 S8        30.19R WCI  20
PROVO AIRPORT  CLEAR     27  21  80 E5        30.21R WCI  21
SALT LAKE CITY CLEAR     28  24  85 SE6       30.19S WCI  22
VERNAL         PTCLDY    24  19  81 W8        30.09R WCI  15
WENDOVER       PTCLDY    27  18  69 S3        30.19S
HEBER CITY     CLEAR     19  18  93 CALM      30.19R
WEST JORDAN    CLEAR     27  21  80 S5        30.20S WCI  21

$$

UTZ012>022-026-027-011300-

SOUTHERN/CENTRAL UTAH

CITY           SKY/WX    TMP DP  RH WIND       PRES   REMARKS
BLANDING       CLEAR     30  29  98 CALM      30.14R
BRYCE CANYON   CLEAR     22  19  89 NW10      30.15R WCI  11
CEDAR CITY     CLEAR     24  21  88 CALM      30.17R
DELTA          CLEAR     26  26  99 CALM      30.21R
HANKSVILLE     CLOUDY    28  28 100 CALM      30.13R
MILFORD        CLEAR     26  23  88 W6        30.19S WCI  19
MOAB/CYNLANDS  FOG       31  31 100 W5        30.09R VSB 1   WCI  26
PRICE          CLEAR     34  15  46 N10       30.10S WCI  26
ST GEORGE      SUNNY     39  30  70 S3        30.15R
KANAB          CLEAR     27  27 100 NE6       30.17R WCI  20

$$

REGIONAL REPORTS     COLORADO/ARIZONA

CITY           SKY/WX    TMP DP  RH WIND       PRES   REMARKS
CRAIG, CO      CLEAR     13   9  84 SW3       30.11S
GRAND JUNCTION CLEAR     27  26  96 E5        30.10S WCI  22
RIFLE          CLEAR     25  21  85 CALM      30.12R
MONTROSE       PTCLDY    28  26  92 SE6       30.13R WCI  22
CORTEZ         CLEAR     26  23  88 SE3       30.05R
PAGE, AZ       NOT AVBL
GRAND CANYON   CLEAR     20  18  92 CALM      30.11S
KINGMAN        CLEAR     37  34  89 E6        30.08R WCI  32
FLAGSTAFF      CLEAR     32  27  81 S5        30.09R WCI  27

$$

REGIONAL REPORTS    NEVADA/IDAHO/WYOMING

CITY           SKY/WX    TMP DP  RH WIND       PRES   REMARKS
LAS VEGAS, NV  CLEAR     46  38  73 SW7       30.08R
ELY            CLEAR     20  17  88 S13       30.22S WCI   7
ELKO           PTCLDY    24  20  84 CALM      30.22S
POCATELLO, ID  CLOUDY    29  28  96 N7        30.21S WCI  22
BURLEY         PTCLDY    23  21  92 CALM      30.18S FOG
EVANSTON, WY   PTCLDY    21  17  84 SW10      30.13R WCI  10
ROCK SPRINGS   CLEAR     20  10  65 W10       30.09R WCI   9

$$



USA.gov is the U.S. government's official web portal to all federal, state and local government web resources and services.